Location: Phoenix
(33.4480°N, 112.0730°W)
Time: 18:32:21
(UTC-07:00)

Daily predictions for brighter satellites

Satellite Brightness Start Highest point End
(mag) Time Altitude Azimuth Time Altitude Azimuth Time Altitude Azimuth
METEOR-M 4.2 19:18:13 10° SSE 19:23:30 67° ENE 19:28:48 10° N
NOSS 2-1 (E) 3.6 19:21:51 10° SW 19:25:41 73° WNW 19:29:53 10° NNE
CZ-2D R/B 4.4 19:26:43 10° SE 19:29:55 25° ENE 19:33:09 10° NNE
HJ-1C 3.3 19:28:40 10° SSE 19:31:56 89° W 19:35:13 10° NNW
Resurs 01 Rocket 1.6 19:27:54 10° SSE 19:32:19 86° E 19:36:46 10° NNW
Hubble Space Telescope 1.7 19:30:41 10° WSW 19:34:33 37° S 19:38:23 10° ESE
FengYun 1-2 T 4.3 19:30:37 10° SSE 19:36:11 64° ENE 19:41:44 10° N
Cosmos 1934 Rocket 4.0 19:32:58 10° S 19:38:54 58° E 19:44:57 10° NNE
USA 186 2.9 19:41:35 11° SE 19:44:04 24° ENE 19:46:35 10° NNE
Tiangong 1 3.6 19:42:10 10° NW 19:44:19 17° N 19:46:29 10° NNE
Cosmos 1777 Rocket 4.1 19:39:58 10° N 19:45:09 58° ENE 19:50:20 10° SSE
OTV 4 1.7 19:42:55 10° WNW 19:45:40 32° N 19:48:16 11° ENE
Cosmos 1536 3.8 19:42:35 10° SSW 19:46:28 52° W 19:50:24 10° N
Delta 2 Rocket 4.1 19:40:51 10° WNW 19:46:34 74° N 19:51:17 13° E
Cosmos 1544 Rocket 3.5 19:43:03 10° S 19:47:24 78° E 19:51:48 10° N
Cosmos 1346 Rocket 3.5 19:44:16 10° NNE 19:47:54 34° ENE 19:51:31 10° SE
EP 1 4.3 19:49:58 10° SW 19:52:33 72° WNW 19:55:03 10° NNE
FENGYUN 3A 3.7 19:49:03 10° SSE 19:54:19 63° ENE 19:59:36 10° N
Cosmos 2208 Rocket 4.0 19:50:47 10° SSW 19:56:03 85° ESE 20:01:27 10° NNE
Cosmos 2227 Rocket 2.9 19:51:12 10° N 19:56:22 36° ENE 20:00:12 16° ESE
Cosmos 1656 4.1 19:54:07 10° S 19:59:15 37° ESE 20:04:20 10° NE
CZ-4 DEB 4.5 19:59:28 17° ENE 19:59:40 17° ENE 20:01:45 10° NNE
Meteor 1-5 Rocket 4.1 19:55:58 10° S 20:01:16 88° W 20:06:42 10° N
CZ-3C R/B 3.9 18:40:52 10° WSW 20:02:24 52° SSW 20:09:52 17° SE
NOSS 3-4 (A) 3.9 20:02:48 10° NNW 20:09:51 64° ENE 20:15:30 18° SE
Cosmos 2082 4.1 20:04:34 10° N 20:09:55 43° ENE 20:13:11 22° SE
NOSS 3-4 (C) 3.9 20:02:55 10° NNW 20:09:58 63° ENE 20:15:35 19° SE
Cosmos 2297 Rocket 2.9 20:06:53 10° N 20:12:01 34° ENE 20:14:38 23° ESE
CZ-4B DEB 4.5 20:11:20 12° SSE 20:14:37 89° ENE 20:18:15 10° NNW
CZ-4B DEB 4.1 20:11:49 10° S 20:14:54 40° W 20:18:02 10° NNW
Envisat 4.0 20:14:26 23° E 20:16:01 27° ENE 20:20:13 10° NNE
Cosmos 1605 Rocket 4.1 20:17:35 10° S 20:23:58 85° W 20:30:18 10° N
OAO 2 Rocket 3.3 20:19:28 10° WSW 20:24:31 89° N 20:27:31 25° ENE
YAOGAN 11 4.3 20:27:50 33° SE 20:29:34 54° ENE 20:33:57 10° N
Cosmos 2100 Rocket 4.3 20:27:04 21° SSE 20:30:58 43° E 20:36:49 10° NNE
Cosmos 1975 2.8 20:27:16 10° S 20:31:22 88° E 20:35:29 10° N
Cosmos 2061 Rocket 4.4 20:29:07 26° SE 20:32:01 40° E 20:37:48 10° NNE
Iridium 4 Rocket 3.2 20:29:31 10° N 20:34:32 66° E 20:36:38 32° SSE
DELTA 2 R/B (1) 4.2 20:33:05 10° WNW 20:38:30 49° N 20:41:10 28° ENE
H-2A R/B 3.1 20:43:39 28° NE 20:43:39 28° NE 20:46:31 10° N
Cosmos 1066 Rocket 4.5 20:38:32 10° N 20:44:02 50° E 20:45:23 42° ESE
Lacrosse 5 rocket 2.0 20:42:07 10° NNW 20:45:08 34° NNE 20:45:08 34° NNE
Cosmos 1697 Rocket 2.5 20:40:44 10° SSW 20:46:21 74° ESE 20:51:59 10° NNE
ALOS 4.0 20:43:09 10° SSW 20:47:17 31° W 20:51:25 10° NW
ERS-1 Rocket 2.8 20:47:46 42° SSE 20:49:27 80° ENE 20:54:29 10° N
Cosmos 1626 Rocket 3.6 20:46:58 10° N 20:51:21 74° W 20:52:46 42° S
deb Chang Zheng 4 3.6 20:51:33 10° NNE 20:55:42 65° ENE 20:55:42 65° ENE
Cosmos 1461 2.9 20:53:40 10° NW 20:57:39 65° WSW 20:57:43 65° SW
Cosmos 1898 Rocket 3.6 20:53:59 10° N 20:59:12 56° ENE 20:59:26 56° E
Cosmos 1602 Rocket 4.1 20:55:24 10° NNW 20:59:47 58° W 21:01:15 37° SSW
Cosmos 1939 Rocket 2.9 21:03:34 80° WNW 21:03:34 80° WNW 21:07:36 10° NNW
Cosmos 1980 Rocket 2.0 21:08:26 67° ESE 21:08:29 67° ESE 21:14:08 10° NNE
Cosmos 1459 Rocket 3.8 21:05:51 36° S 21:08:31 86° E 21:14:36 10° N
Nimbus 7 Rocket 4.3 21:02:36 10° NNE 21:08:42 84° ESE 21:11:53 30° S
Milstar 3 Cent rocket 4.0 20:49:07 10° W 21:10:16 70° S 21:14:46 42° ESE
ARGOS 4.4 21:12:23 28° NE 21:12:23 28° NE 21:15:52 10° N
Cosmos 468 Rocket 4.5 21:09:09 10° SSW 21:14:11 58° WNW 21:19:14 10° N
Hubble Space Telescope 3.1 21:12:22 10° WSW 21:13:46 16° SW 21:13:46 16° SW
Lacrosse 5 3.1 21:14:40 10° NNW 21:18:37 31° NNE 21:18:37 31° NNE
SPOT 5 3.1 21:20:37 64° NNE 21:20:37 64° NNE 21:24:54 10° N
Tiangong 1 4.2 21:19:37 10° NNW 21:20:22 13° NNW 21:20:22 13° NNW
OTV 4 3.7 21:19:13 10° WNW 21:19:48 15° WNW 21:19:48 15° WNW
Cosmos 1814 Rocket 4.5 21:17:10 10° SSW 21:22:26 59° WNW 21:27:41 10° N
MetOp-B 4.3 21:30:42 65° N 21:30:42 65° N 21:35:17 10° N
Meteor 1-21 4.4 21:27:11 10° N 21:32:13 66° NNE 21:32:13 66° NNE
USA 215 4.5 21:32:14 26° NE 21:33:28 28° NNE 21:38:50 10° NNW
Cosmos 1802 Rocket 4.2 21:32:30 43° SSW 21:34:37 69° W 21:41:03 10° N
RESURS DK-1 4.3 21:32:22 10° NNW 21:34:13 25° N 21:34:13 25° N
SL-08 R/B 4.4 21:40:20 79° N 21:40:20 79° N 21:46:09 10° N
Cosmos 2227 Rocket 3.9 21:35:37 10° NW 21:40:10 25° WSW 21:42:03 21° SW
Cosmos 2016 Rocket 4.4 21:52:15 55° WSW 21:52:47 57° W 21:58:50 10° N
Cosmos 2297 Rocket 3.8 21:51:12 10° NW 21:55:50 27° WSW 21:56:28 26° WSW
H-2A R/B 4.0 22:00:30 20° NNE 22:00:30 20° NNE 22:02:07 10° N
Terra 4.3 22:02:30 15° NNE 22:02:30 15° NNE 22:03:24 10° N
Cosmos 2098 Rocket 4.5 22:07:38 62° W 22:07:38 62° W 22:13:53 10° N
SL-16 R/B 4.4 22:39:10 18° N 22:39:10 18° N 22:40:34 10° NNE
